#timestamp,LO_Frequency,Hit 
1503104415.2,286047012.2,N
1503104435.0,286047011.5,N
1503104435.9,286047011.5,N
1503104455.7,286047009.0,N
1503104475.6,286047001.6,N
1503104495.4,286047004.3,N
1503104515.2,286047005.7,N
1503104535.1,286047005.6,N
1503104536.0,286047005.6,N
1503104555.8,286047004.2,N
1503104575.6,286047000.8,N
1503104595.5,286046996.8,N
1503104615.3,286047001.3,N
1503104635.1,286047009.1,N
1503104655.9,286047009.1,N
1503104675.7,286047004.0,N
1503104695.5,286046998.4,N
1503104715.3,286047000.8,N
1503104735.2,286047001.8,N
1503104755.9,286047003.0,N
1503104775.7,286047000.6,N
1503104795.6,286047000.4,N
1503104815.4,286046998.1,N
1503104835.2,286046995.0,N
1503104855.1,286046996.5,N
1503104856.0,286046996.5,N
1503104875.8,286047002.0,N
1503104895.6,286046999.9,N
1503104915.5,286046998.6,N
1503104935.3,286046999.5,N
1503104955.1,286046997.4,N
1503104975.9,286047000.7,N
1503104995.7,286047001.1,N
1503105015.5,286047001.0,N
1503105035.3,286047000.7,N
1503105055.2,286046995.8,N
1503105075.0,286046993.4,N
1503105075.9,286046993.4,N
1503105095.7,286046993.7,N
1503105115.6,286047001.3,N
1503105135.4,286047004.5,N
1503105155.2,286047008.7,N
1503105175.1,286047011.7,N
1503105176.0,286047011.7,N
1503105195.8,286047009.7,N
1503105215.6,286047014.1,N
1503105235.5,286047015.3,N
1503105255.3,286047010.4,N
1503105275.1,286047011.0,N
1503105295.9,286047007.7,N
1503105315.7,286047010.4,N
1503105335.5,286047010.7,N
1503105355.4,286047013.9,N
1503105375.2,286047013.8,N
1503105395.0,286047013.9,N
1503105395.9,286047013.9,N
1503105415.7,286047006.3,N
1503105435.6,286047006.8,N
1503105455.4,286047006.5,N
1503105475.2,286047008.0,N
1503105495.1,286047008.8,N
1503105496.0,286047008.8,N
1503105515.8,286047004.8,N
1503105535.6,286047000.4,N
1503105555.5,286047000.5,N
1503105575.3,286047000.6,N
1503105595.1,286047008.1,N
1503105615.9,286047013.3,N
1503105635.7,286047008.3,N
1503105655.5,286047013.3,P
1503105675.4,286047007.6,P
1503105695.2,286047003.3,N
1503105715.0,286047003.2,N
1503105715.9,286047003.2,N
1503105735.8,286047001.5,N
1503105755.6,286046999.6,N
1503105775.4,286046996.9,N
1503105795.3,286046999.6,N
1503105815.1,286047001.1,N
1503105816.0,286047001.1,N
1503105835.8,286047004.2,N
1503105855.7,286047000.2,N
1503105875.5,286047003.8,N
1503105895.3,286047004.9,N
1503105915.2,286047005.4,N
1503105935.9,286047007.1,N
1503105955.7,286047007.4,N
1503105975.6,286047013.6,P
1503105995.4,286047017.2,P
1503106015.2,286047016.9,N
1503106035.1,286047011.4,N
1503106036.0,286047011.4,N
1503106055.8,286047005.0,N
1503106075.6,286047004.6,N
1503106095.4,286047008.0,N
1503106115.3,286047007.0,N
1503106135.1,286047006.4,N
1503106155.8,286047010.3,N
1503106175.7,286047005.8,N
1503106195.5,286047005.0,N
1503106215.3,286047009.1,N
1503106235.2,286047005.3,N
1503106255.9,286047003.2,N
1503106275.7,286047006.8,N
1503106295.6,286047006.7,N
1503106315.4,286047007.7,N
1503106335.2,286047011.0,N
1503106355.1,286047013.4,P
1503106356.0,286047013.4,P
1503106375.8,286047003.2,N
1503106395.6,286047004.2,N
1503106415.5,286047003.1,N
1503106435.3,286046999.9,N
1503106455.1,286046998.9,N
1503106475.8,286046993.1,N
1503106495.7,286046992.5,N
1503106515.5,286046995.8,N
1503106535.3,286046998.9,N
1503106555.2,286046998.7,N
1503106575.9,286046998.6,N
1503106595.7,286047002.5,N
1503106615.6,286047007.5,N
1503106635.4,286047007.2,N
1503106655.2,286047005.3,N
1503106675.1,286047001.6,N
1503106676.0,286047001.6,N
1503106695.8,286047004.9,N
1503106715.6,286047003.8,N
1503106735.5,286047000.5,N
1503106755.3,286046997.7,N
1503106775.1,286046993.8,N
1503106795.8,286046992.8,N
1503106815.7,286046995.9,N
1503106835.5,286046993.8,N
1503106855.3,286046996.7,N
1503106875.2,286046997.0,N
1503106895.9,286046998.0,N
1503106915.7,286046995.0,N
1503106935.6,286047000.6,N
1503106955.4,286047001.7,N
1503106975.2,286047003.4,N
1503106995.1,286047003.7,N
1503106996.0,286047003.7,N
1503107015.8,286047007.6,N
1503107035.6,286047006.8,N
1503107055.5,286047009.1,N
1503107075.3,286047006.2,N
1503107095.1,286047006.2,N
1503107115.8,286047008.3,N
1503107135.7,286047008.2,N
1503107155.5,286047010.0,N
1503107175.3,286047009.5,N
1503107195.2,286047011.9,N
1503107215.9,286047014.3,N
1503107235.7,286047014.3,N
1503107255.6,286047012.4,N
1503107275.4,286047012.0,N
1503107295.2,286047009.6,N
1503107315.1,286047011.8,N
1503107316.0,286047011.8,N
1503107335.8,286047014.0,N
1503107355.6,286047013.2,N
1503107375.5,286047012.0,N
1503107395.3,286047013.4,N
1503107415.1,286047014.5,N
1503107435.9,286047015.4,N
1503107455.7,286047015.0,N
1503107475.5,286047012.7,N
1503107495.4,286047016.0,P
1503107515.2,286047004.5,N
1503107535.0,286047001.1,N
1503107535.9,286047001.1,N
1503107555.7,286046997.9,N
1503107575.6,286046996.6,N
1503107595.4,286047000.3,N
1503107615.2,286046997.3,N
1503107635.1,286046999.5,N
1503107636.0,286046999.5,N
1503107655.8,286047005.2,N
1503107675.6,286047008.0,N
1503107695.5,286047006.1,N
1503107715.3,286047001.6,N
1503107735.1,286047002.0,N
1503107755.9,286047013.5,N
1503107775.7,286047016.8,P
1503107795.5,286047015.0,N
1503107815.4,286047015.7,N
1503107835.2,286047009.4,N
1503107855.0,286047007.5,N
1503107855.9,286047007.5,N
1503107875.8,286047005.3,N
1503107895.6,286046999.0,N
1503107915.4,286046996.4,N
1503107935.3,286046994.5,N
1503107955.1,286046995.9,N
1503107956.0,286046995.9,N
1503107975.8,286046998.1,N
1503107995.6,286047000.3,N
